"Pseudo-MPEC" for LA0AgiQ

Created 2025 Nov 9 8:35:04 UT using Find_Orb

Click here for an explanation of pseudo-MPECs

 
 Astrometry: 
     LA0AgiQ* C2025 10 22.66917802 48 44.297+01 08 14.57   ~AOHK 19.8 GVNEOCPP07
     LA0AgiQ  C2025 10 22.78254302 48 50.674+01 00 07.02   ~AOHK 20.3 GVNEOCPP07
     LA0AgiQ  C2025 10 22.79922002 48 51.559+00 58 55.52   ~AOHK 19.1 GVNEOCPP07
     LA0AgiQ  C2025 10 22.82636702 48 53.114+00 56 58.52   ~AOHK 19.4 GVNEOCPP07

Station data:
(P07) Space Surveillance Telescope, HEH Station  (S21.895685 E114.089870)
   Australia/WA.  Observers M. Blythe, R. Brungard, P. Festler, T. McVey, J.
   Paige, G. Spitz, L. Banks. Measurers M. Cornell, M. Kotson, R. Rios, J.
   Ruprecht, J. Vaillancourt, J. Varey, H. Viggh, D. Woods. 3.5-m f/1.0
   reflector + CCD.

Orbital elements:  LA0AgiQ
   Perihelion 2025 Dec 27.340024 +/- 44 TT =  8:09:38.0 (JD 2461036.840024)
Epoch 2025 Oct 23.0 TT = JDT 2460971.5   Earth MOID: 0.1084   Ma: 0.0136
M 349.038524691 +/- 18              (J2000 ecliptic)             AutoNEOCP
n   0.167760503 +/- 0.206           Peri.  276.532792 +/- 51
a   3.255938818 +/- 2.67            Node   200.221583 +/- 5.2
e   0.75739036 +/- 0.25             Incl.   16.794215 +/- 9
P   5.87509                H 21.12  G  0.15   U 11.7  SR
q 0.789922142 +/- 0.223    Q 5.721955494 +/- 39.9
From 4 observations 2025 Oct. 22 (3.8 hr); mean residual 0".37
Residuals in arcseconds: 
251022 P07  .17-  .12+    251022 P07  .20-  .01+    
251022 P07  .74+  .45-    251022 P07  .37-  .31+    

Ephemerides (geocentric):
Date (UTC) HH   RA             Dec           delta  r     elong  mag " sig PA
---- --------  ------------   ------------  ------ ------ -----  --- --------
2025 11 09 09  03 25 37.518   -36 41 44.05  .17764 1.1044 126.0 19.3  19d  60
2025 11 09 10  03 25 48.087   -36 49 47.55  .17749 1.1039 125.9 19.3  19d  60
2025 11 09 11  03 25 58.707   -36 57 51.63  .17735 1.1035 125.7 19.3  19d  60
2025 11 09 12  03 26 09.381   -37 05 56.29  .17721 1.1031 125.6 19.3  19d  60
2025 11 09 13  03 26 20.108   -37 14 01.51  .17707 1.1026 125.4 19.3  19d  60
2025 11 09 14  03 26 30.888   -37 22 07.30  .17694 1.1022 125.3 19.3  19d  60
2025 11 09 15  03 26 41.721   -37 30 13.65  .17680 1.1018 125.2 19.4  19d  60
2025 11 09 16  03 26 52.609   -37 38 20.55  .17666 1.1013 125.0 19.4  19d  60
2025 11 09 17  03 27 03.552   -37 46 28.00  .17653 1.1009 124.9 19.4  19d  60
2025 11 09 18  03 27 14.549   -37 54 35.99  .17640 1.1005 124.7 19.4  19d  60
2025 11 09 19  03 27 25.602   -38 02 44.52  .17626 1.1001 124.6 19.4  19d  60
2025 11 09 20  03 27 36.711   -38 10 53.59  .17613 1.0996 124.4 19.4  20d  60
2025 11 09 21  03 27 47.876   -38 19 03.18  .17600 1.0992 124.3 19.4  20d  60
2025 11 09 22  03 27 59.097   -38 27 13.30  .17587 1.0988 124.1 19.4  20d  60
2025 11 09 23  03 28 10.375   -38 35 23.94  .17575 1.0983 124.0 19.4  20d  60
2025 11 10 00  03 28 21.711   -38 43 35.08  .17562 1.0979 123.8 19.4  20d  60
2025 11 10 01  03 28 33.105   -38 51 46.73  .17549 1.0975 123.7 19.4  20d  60
2025 11 10 02  03 28 44.557   -38 59 58.89  .17537 1.0970 123.5 19.4  20d  60
2025 11 10 03  03 28 56.068   -39 08 11.53  .17524 1.0966 123.4 19.4  20d  60
2025 11 10 04  03 29 07.638   -39 16 24.67  .17512 1.0962 123.2 19.4  20d  60
2025 11 10 05  03 29 19.268   -39 24 38.29  .17500 1.0957 123.1 19.4  20d  60
2025 11 10 06  03 29 30.958   -39 32 52.39  .17488 1.0953 122.9 19.4  20d  60
2025 11 10 07  03 29 42.708   -39 41 06.97  .17476 1.0949 122.8 19.4  20d  60
2025 11 10 08  03 29 54.519   -39 49 22.00  .17464 1.0944 122.7 19.4  20d  60
2025 11 10 09  03 30 06.392   -39 57 37.51  .17453 1.0940 122.5 19.4  20d  60
2025 11 10 10  03 30 18.327   -40 05 53.46  .17441 1.0936 122.4 19.4  20d  60
2025 11 10 11  03 30 30.324   -40 14 09.86  .17429 1.0931 122.2 19.4  20d  60
2025 11 10 12  03 30 42.384   -40 22 26.71  .17418 1.0927 122.1 19.4  20d  60
2025 11 10 13  03 30 54.508   -40 30 44.00  .17407 1.0923 121.9 19.4  20d  60
2025 11 10 14  03 31 06.695   -40 39 01.71  .17396 1.0919 121.8 19.4  20d  60
2025 11 10 15  03 31 18.946   -40 47 19.85  .17384 1.0914 121.6 19.4  20d  60
2025 11 10 16  03 31 31.263   -40 55 38.41  .17374 1.0910 121.5 19.4  20d  60
2025 11 10 17  03 31 43.645   -41 03 57.39  .17363 1.0906 121.3 19.4  20d  60
2025 11 10 18  03 31 56.092   -41 12 16.77  .17352 1.0901 121.2 19.4  20d  60
2025 11 10 19  03 32 08.606   -41 20 36.55  .17341 1.0897 121.0 19.4  20d  60
2025 11 10 20  03 32 21.187   -41 28 56.72  .17331 1.0893 120.9 19.4  20d  60
2025 11 10 21  03 32 33.836   -41 37 17.28  .17320 1.0888 120.7 19.4  20d  60
2025 11 10 22  03 32 46.552   -41 45 38.22  .17310 1.0884 120.6 19.4  20d  60
2025 11 10 23  03 32 59.336   -41 53 59.54  .17300 1.0880 120.4 19.4  20d  60
2025 11 11 00  03 33 12.190   -42 02 21.23  .17290 1.0876 120.3 19.4  20d  60
2025 11 11 01  03 33 25.113   -42 10 43.27  .17280 1.0871 120.1 19.4  20d  60
2025 11 11 02  03 33 38.106   -42 19 05.68  .17270 1.0867 120.0 19.4  20d  60
2025 11 11 03  03 33 51.170   -42 27 28.43  .17260 1.0863 119.8 19.4  20d  60
2025 11 11 04  03 34 04.305   -42 35 51.53  .17251 1.0858 119.7 19.4  20d  60
2025 11 11 05  03 34 17.512   -42 44 14.96  .17241 1.0854 119.5 19.4  20d  60
2025 11 11 06  03 34 30.791   -42 52 38.72  .17232 1.0850 119.3 19.4  20d  60
2025 11 11 07  03 34 44.143   -43 01 02.80  .17222 1.0846 119.2 19.4  20d  60
2025 11 11 08  03 34 57.569   -43 09 27.20  .17213 1.0841 119.0 19.4  20d  60